Date String (YYYY-MM-DD hh:mm:ss) UTC,Instrument flags,Ambient pressure (hPa),Sample flow (lpm),Bypass flow (lpm),Sample temperature (°C),Ambient temperature (°C),ASC tube jacket temperature (°C),LED temperature (°C),Box temperature (°C),Sample RH (%),Span deviation,Mass concentration (μg/m³),Mass concentration (μg/m³),Mass concentration (μg/m³)
DateTimeUTC,F1_M11,P_M11,Q1_M11,Q2_M11,T1_M11,T2_M11,T3_M11,T4_M11,T5_M11,U1_M11,ZSPAN_M11,X2_M11,X0_M11,X1_M11
2022-02-10 03:00:00,,0829.1,5.00,0.00,25.8,25.0,00.0,34.9,27.6,08.8,0000.0,0000.65,0001.30,0000.50
2022-02-10 03:01:00,,0828.7,4.99,0.00,25.8,25.0,00.0,34.9,27.5,08.7,0000.0,0000.64,0001.18,0000.49
2022-02-10 03:02:00,,0828.4,5.01,0.00,25.8,25.0,00.0,34.9,27.5,08.8,0000.0,0000.66,0001.28,0000.50
2022-02-10 03:03:00,,0828.4,5.01,0.00,25.8,25.0,00.0,34.9,27.6,08.7,0000.0,0000.65,0001.19,0000.50
2022-02-10 03:04:00,,0828.4,4.99,0.00,25.8,24.9,00.0,34.9,27.5,08.7,0000.0,0000.64,0001.19,0000.50
2022-02-10 03:05:00,,0828.5,5.00,0.00,25.8,24.9,00.0,34.8,27.5,08.7,0000.0,0000.63,0001.15,0000.50
2022-02-10 03:06:00,,0828.4,4.99,0.00,25.8,24.9,00.0,34.8,27.5,08.7,0000.0,0000.64,0001.20,0000.50
2022-02-10 03:07:00,,0828.5,5.01,0.00,25.8,24.8,00.0,34.8,27.4,08.7,0000.0,0000.66,0001.17,0000.50
2022-02-10 03:08:00,,0828.5,4.99,0.00,25.7,24.8,00.0,34.8,27.5,08.6,0000.0,0000.68,0001.28,0000.51
2022-02-10 03:09:00,,0828.5,5.01,0.00,25.7,24.8,00.0,34.8,27.4,08.6,0000.0,0000.66,0001.23,0000.50
2022-02-10 03:10:00,,0828.8,4.98,0.00,25.7,24.8,00.0,34.8,27.4,08.6,0000.0,0000.66,0001.23,0000.50
2022-02-10 03:11:00,,0829.0,5.01,0.00,25.7,24.8,00.0,34.8,27.4,08.6,0000.0,0000.65,0001.20,0000.50
2022-02-10 03:12:00,,0828.9,5.00,0.00,25.7,24.8,00.0,34.8,27.4,08.5,0000.0,0000.65,0001.20,0000.50
2022-02-10 03:13:00,,0829.0,5.00,0.00,25.7,24.8,00.0,34.8,27.4,08.5,0000.0,0000.64,0001.06,0000.50
2022-02-10 03:14:00,,0829.0,5.01,0.00,25.7,24.8,00.0,34.8,27.4,08.6,0000.0,0000.62,0001.01,0000.50
2022-02-10 03:15:00,,0829.0,5.00,0.00,25.7,24.8,00.0,34.8,27.3,08.7,0000.0,0000.62,0000.99,0000.50
2022-02-10 03:16:00,,0829.0,5.01,0.00,25.7,24.8,00.0,34.8,27.4,08.7,0000.0,0000.61,0000.98,0000.50
2022-02-10 03:17:00,,0829.0,4.99,0.00,25.7,24.8,00.0,34.8,27.4,08.9,0000.0,0000.59,0000.91,0000.50
2022-02-10 03:18:00,,0829.0,5.00,0.00,25.7,24.7,00.0,34.8,27.4,09.0,0000.0,0000.59,0000.85,0000.49
2022-02-10 03:19:00,,0828.9,5.01,0.00,25.7,24.7,00.0,34.7,27.4,08.9,0000.0,0000.59,0000.78,0000.50
2022-02-10 03:20:00,,0828.7,4.99,0.00,25.7,24.8,00.0,34.7,27.4,08.8,0000.0,0000.61,0000.83,0000.51
2022-02-10 03:21:00,,0828.5,5.02,0.00,25.6,24.7,00.0,34.7,27.3,08.7,0000.0,0000.64,0000.88,0000.51
2022-02-10 03:22:00,,0828.6,4.98,0.00,25.6,24.7,00.0,34.7,27.3,08.7,0000.0,0000.64,0000.91,0000.51
2022-02-10 03:23:00,,0828.8,5.01,0.00,25.6,24.7,00.0,34.7,27.3,08.6,0000.0,0000.63,0000.89,0000.51
2022-02-10 03:24:00,,0828.9,4.99,0.00,25.6,24.7,00.0,34.7,27.3,08.7,0000.0,0000.62,0000.87,0000.51
2022-02-10 03:25:00,,0828.6,4.99,0.00,25.6,24.7,00.0,34.7,27.3,08.7,0000.0,0000.64,0000.89,0000.52
2022-02-10 03:26:00,,0828.6,5.01,0.00,25.6,24.7,00.0,34.7,27.3,08.8,0000.0,0000.65,0000.91,0000.52
2022-02-10 03:27:00,,0828.5,5.00,0.00,25.6,24.7,00.0,34.7,27.3,09.0,0000.0,0000.69,0001.00,0000.54
2022-02-10 03:28:00,,0828.6,4.99,0.00,25.6,24.6,00.0,34.7,27.2,08.7,0000.0,0000.70,0001.01,0000.54
2022-02-10 03:29:00,,0828.6,5.00,0.00,25.6,24.6,00.0,34.7,27.2,08.7,0000.0,0000.69,0000.98,0000.54
2022-02-10 03:30:00,,0828.6,5.01,0.00,25.6,24.6,00.0,34.7,27.3,08.7,0000.0,0000.73,0001.08,0000.55
2022-02-10 03:31:00,,0828.7,5.00,0.00,25.6,24.6,00.0,34.6,27.3,08.7,0000.0,0000.71,0001.04,0000.55
2022-02-10 03:32:00,,0828.9,5.02,0.00,25.5,24.6,00.0,34.6,27.3,08.8,0000.0,0000.68,0000.97,0000.54
2022-02-10 03:33:00,,0828.8,5.00,0.00,25.5,24.6,00.0,34.6,27.3,08.7,0000.0,0000.70,0000.98,0000.55
2022-02-10 03:34:00,,0828.9,4.99,0.00,25.5,24.6,00.0,34.6,27.3,08.6,0000.0,0000.71,0000.97,0000.56
2022-02-10 03:35:00,,0828.7,5.01,0.00,25.5,24.6,00.0,34.6,27.2,08.6,0000.0,0000.71,0000.97,0000.56
2022-02-10 03:36:00,,0828.8,4.99,0.00,25.5,24.6,00.0,34.6,27.2,08.7,0000.0,0000.71,0001.00,0000.57
2022-02-10 03:37:00,,0828.7,5.01,0.00,25.5,24.6,00.0,34.6,27.2,08.7,0000.0,0000.73,0001.07,0000.57
2022-02-10 03:38:00,,0828.8,4.99,0.00,25.5,24.6,00.0,34.6,27.2,08.8,0000.0,0000.71,0001.04,0000.57
2022-02-10 03:39:00,,0828.6,4.99,0.00,25.5,24.6,00.0,34.6,27.2,08.8,0000.0,0000.71,0001.04,0000.56
2022-02-10 03:40:00,,0828.7,5.01,0.00,25.5,24.6,00.0,34.6,27.2,08.8,0000.0,0000.73,0001.10,0000.57
2022-02-10 03:41:00,,0828.7,4.99,0.00,25.5,24.6,00.0,34.6,27.2,08.7,0000.0,0000.72,0001.07,0000.58
2022-02-10 03:42:00,,0828.7,5.01,0.00,25.4,24.6,00.0,34.6,27.2,08.8,0000.0,0000.74,0001.22,0000.58
2022-02-10 03:43:00,,0829.2,5.01,0.00,25.5,24.6,00.0,34.5,27.2,08.7,0000.0,0000.78,0001.37,0000.59
2022-02-10 03:44:00,,0828.9,4.98,0.00,25.4,24.6,00.0,34.5,27.2,08.7,0000.0,0000.79,0001.41,0000.60
2022-02-10 03:45:00,,0829.2,5.00,0.00,25.4,24.6,00.0,34.5,27.2,08.7,0000.0,0000.80,0001.46,0000.60
2022-02-10 03:46:00,,0829.5,4.99,0.00,25.4,24.6,00.0,34.5,27.2,09.2,0000.0,0000.82,0001.50,0000.61
2022-02-10 03:47:00,,0829.5,5.01,0.00,25.4,24.6,00.0,34.5,27.2,10.2,0000.0,0000.95,0001.87,0000.73
2022-02-10 03:48:00,,0829.5,4.99,0.00,25.4,24.6,00.0,34.5,27.2,10.8,0000.0,0001.22,0003.60,0000.96
2022-02-10 03:49:00,,0829.5,5.02,0.00,25.4,24.6,00.0,34.5,27.2,11.1,0000.0,0001.79,0007.04,0001.38
2022-02-10 03:50:00,,0829.5,4.99,0.00,25.4,24.6,00.0,34.5,27.2,11.2,0000.0,0002.41,0008.41,0001.89
2022-02-10 03:51:00,,0829.5,5.01,0.00,25.4,24.5,00.0,34.4,27.2,11.3,0000.0,0003.03,0009.43,0002.42
2022-02-10 03:52:00,,0829.5,4.99,0.00,25.4,24.5,00.0,34.4,27.2,11.4,0000.0,0003.43,0009.93,0002.94
2022-02-10 03:53:00,,0829.5,5.02,0.00,25.4,24.5,00.0,34.4,27.2,11.4,0000.0,0003.73,0010.33,0003.29
2022-02-10 03:54:00,,0829.5,4.99,0.00,25.4,24.6,00.0,34.4,27.2,11.5,0000.0,0004.06,0010.80,0003.57
2022-02-10 03:55:00,,0829.5,5.01,0.00,25.4,24.6,00.0,34.4,27.2,11.7,0000.0,0004.42,0011.80,0003.83
2022-02-10 03:56:00,,0829.5,4.99,0.00,25.3,24.6,00.0,34.4,27.2,12.1,0000.0,0004.70,0012.93,0004.04
2022-02-10 03:57:00,,0829.6,5.01,0.00,25.3,24.5,00.0,34.4,27.1,12.3,0000.0,0004.96,0013.43,0004.22
2022-02-10 03:58:00,,0829.6,4.99,0.00,25.3,24.5,00.0,34.4,27.1,12.7,0000.0,0005.09,0013.90,0004.32
2022-02-10 03:59:00,,0829.6,5.00,0.00,25.3,24.5,00.0,34.4,27.1,12.7,0000.0,0005.11,0013.21,0004.33
